Wind_Speed
28 29 34 34 35 35 37 40 44 49 55 59 58 55 63 61 55 48 40 40 44 49 43 39 35 35 39 42 42 41 45 39 36 41 32 32 33 32 39 42 39 47 41 34 38
35 36 36 39 41 43 45 44 45 47 50 54 61 59 60 62 62 57 40 47 48 51 43 36 38 40 42 42 47 46 42 36 40 38 39 38 42 35 39 44 48 40 36 36 39
37 37 40 42 43 43 45 48 49 47 46 46 53 59 63 61 56 48 45 43 50 52 45 45 42 44 43 43 45 48 46 42 44 41 45 44 42 41 42 37 31 31 35 38 30
35 38 40 43 45 46 46 46 46 50 50 48 44 50 58 61 63 55 51 50 48 52 51 53 45 48 49 47 42 54 48 45 41 40 43 45 51 44 36 32 27 33 35 28 22
36 38 40 42 45 46 47 49 49 49 51 51 53 52 52 58 58 60 57 57 54 53 56 55 55 51 53 47 49 55 48 47 44 42 43 49 47 37 29 24 29 32 25 17 21
37 40 43 44 46 49 51 51 51 49 47 53 55 56 57 55 50 52 58 58 64 64 64 63 58 54 58 52 54 51 51 48 45 37 43 35 30 28 12 23 29 28 14 17 23
46 48 48 48 49 52 52 52 55 56 51 49 50 55 56 46 45 48 57 57 62 65 67 66 64 62 63 57 54 55 56 51 32 33 21 33 27 23 15 26 23 21 16 19 18
55 57 58 58 59 58 57 57 57 59 59 54 52 52 42 42 49 49 47 51 53 57 60 63 65 67 69 63 60 60 57 40 27 32 19 34 14 15 26 24 18 14 15 11 15
62 65 67 69 69 68 67 65 63 61 63 62 58 54 44 45 48 42 46 45 46 51 56 60 63 65 67 64 65 63 46 37 29 29 27 35 26 23 23 22 16 12 13 13 15
68 72 76 79 79 78 76 74 71 69 66 64 64 61 54 53 50 47 46 48 43 47 52 58 61 63 62 64 61 53 49 45 32 15 28 34 34 24 23 25 18 13 11 13 14
81 85 84 83 85 87 86 83 80 77 72 69 66 62 61 59 56 55 48 49 47 42 44 54 57 57 56 55 57 56 52 45 29 18 33 33 31 18 27 28 18 11 12 12 16
91 93 88 79 76 87 87 89 88 85 80 75 71 66 63 63 60 56 54 53 52 44 36 39 45 42 47 52 55 54 52 42 29 15 35 31 32 25 26 25 15 11 9 14 17
67 58 56 53 50 56 66 79 84 88 85 76 76 73 66 66 64 58 51 51 52 50 48 43 29 29 32 39 46 48 47 32 28 19 35 38 34 27 26 18 11 10 11 14 13
45 39 35 34 36 36 38 44 53 70 84 80 73 77 72 68 66 58 56 53 52 53 46 46 38 34 30 34 38 42 28 26 28 27 33 38 43 27 25 12 15 14 16 10 12
36 35 35 36 37 36 34 34 36 43 63 63 73 75 75 73 67 58 57 54 51 51 49 45 37 34 32 24 29 26 28 30 28 32 36 35 41 15 19 12 16 18 10 9 8
33 33 33 34 36 35 35 36 36 33 42 32 51 63 73 74 73 66 59 55 51 48 47 50 43 38 33 28 37 34 33 32 33 37 47 31 38 9 16 18 14 4 7 11 8
32 31 32 32 33 32 31 29 32 39 25 26 43 50 67 70 72 73 63 62 59 56 53 55 53 44 35 36 38 39 38 38 41 46 46 26 32 14 16 12 6 5 7 11 9
34 36 37 34 33 33 30 29 30 31 33 34 38 36 53 58 62 70 66 62 58 52 51 47 49 48 40 39 37 37 41 44 47 48 37 28 24 13 17 8 5 4 7 7 10
34 37 37 35 32 23 23 26 26 22 33 40 34 33 44 50 55 60 64 63 58 54 52 47 44 42 40 38 37 38 48 41 41 37 39 35 21 23 10 4 2 4 4 7 13
37 34 31 21 15 9 15 22 24 25 25 31 43 44 36 41 50 54 61 69 63 57 52 45 42 38 34 33 37 40 45 42 45 43 40 28 24 15 9 5 4 4 4 9 16
34 28 15 3 6 7 9 13 20 27 24 25 35 49 42 41 53 61 64 69 67 64 61 52 45 35 37 38 38 42 47 44 42 39 34 25 21 16 11 10 5 2 6 11 15
33 19 9 4 6 8 14 14 10 15 21 19 31 53 44 47 52 59 65 73 72 68 65 58 52 40 35 40 37 41 40 36 39 34 30 26 20 20 14 7 5 4 4 16 12
30 16 9 4 7 13 18 15 11 10 15 21 27 53 53 51 57 55 62 69 66 71 69 64 59 50 39 43 41 39 37 39 35 36 35 30 20 20 13 8 6 5 5 13 15
27 17 11 9 8 12 13 15 15 15 12 21 24 34 49 54 59 58 59 66 61 71 71 68 63 56 50 42 37 40 42 42 39 38 26 24 23 17 17 14 11 5 4 8 13
23 19 12 13 11 13 16 15 17 14 17 19 18 26 34 56 60 57 59 62 57 67 70 67 63 57 48 42 39 40 39 38 39 30 33 20 23 19 18 14 9 6 1 6 8
24 20 12 11 16 18 20 15 9 13 10 17 17 20 24 42 58 63 56 66 62 61 67 66 64 62 56 48 45 43 42 40 37 32 29 24 21 19 21 17 11 6 3 2 6
19 24 24 18 14 13 11 11 12 14 12 15 13 19 22 30 55 58 56 64 62 58 69 66 64 64 60 51 48 53 49 43 36 34 28 27 21 23 24 15 12 6 3 3 3
Wind_Direction
256 257 252 254 256 254 255 255 255 254 254 257 254 249 247 248 250 257 252 232 239 240 251 261 259 255 251 248 257 265 270 279 284 286 278 283 284 278 274 281 291 297 291 293 293
257 253 253 255 257 260 259 257 254 253 255 252 248 248 249 249 249 249 254 244 248 243 247 262 259 259 259 260 260 276 280 288 291 285 282 286 292 291 274 268 279 282 278 280 283
259 254 252 253 254 254 256 259 258 256 255 252 248 247 248 249 245 249 249 240 245 244 253 253 254 256 265 260 264 278 279 283 283 290 283 288 289 290 289 275 278 265 269 272 286
260 260 261 257 254 254 255 256 257 258 258 252 250 249 249 246 247 245 243 241 242 248 247 253 263 257 265 255 265 269 272 280 285 285 283 290 293 287 278 269 268 262 264 280 294
264 261 259 257 259 257 260 254 257 259 255 251 252 250 248 247 243 250 244 243 243 239 243 250 258 255 261 257 258 266 273 275 278 288 290 292 294 283 257 270 259 257 266 293 296
272 268 264 260 257 256 256 257 256 256 257 253 251 250 248 251 249 248 248 244 242 241 246 249 256 251 257 255 258 264 269 271 277 289 298 293 285 266 271 249 249 255 280 281 281
278 276 272 267 263 260 256 254 252 250 249 253 252 250 249 250 248 243 248 246 246 244 246 250 253 249 258 257 259 260 264 267 278 293 294 293 268 266 244 243 256 271 265 266 266
277 274 272 269 266 261 257 255 251 250 251 250 249 249 251 248 245 244 244 249 249 250 248 246 243 248 253 255 254 258 261 269 270 279 287 276 280 239 233 246 270 254 245 280 320
274 272 269 267 263 260 257 253 250 249 248 248 247 247 252 246 246 245 244 244 246 243 242 243 247 247 250 252 253 253 262 264 270 272 277 262 256 238 239 251 245 256 281 296 307
277 275 270 265 261 258 255 252 249 246 245 245 245 244 245 244 239 241 246 245 243 243 237 238 242 245 246 245 251 257 262 267 264 243 266 251 261 247 253 253 255 255 270 280 301
284 281 275 266 262 259 254 250 247 245 241 241 241 240 242 244 239 241 238 243 245 245 244 241 244 246 249 252 255 256 262 261 235 246 259 259 264 257 260 268 260 248 257 284 311
284 281 280 277 267 258 255 251 247 244 240 238 238 236 237 238 240 238 238 238 243 246 246 246 247 252 254 252 253 251 254 256 227 238 257 252 254 258 270 270 271 260 279 305 307
296 292 286 282 275 264 261 256 249 245 241 236 236 235 232 235 235 237 232 235 237 240 243 248 260 253 248 247 247 247 249 243 234 229 246 258 261 266 271 262 266 255 290 294 302
305 300 295 291 287 281 273 269 259 247 241 235 234 236 234 235 233 232 232 229 231 237 240 244 242 242 251 244 240 242 226 242 244 238 242 256 264 256 260 261 267 280 280 300 298
302 292 288 285 283 281 277 272 267 260 241 237 236 231 231 231 233 229 233 229 229 233 234 238 241 244 248 254 228 213 237 246 239 234 241 234 260 253 246 254 272 268 273 278 284
298 289 288 289 285 283 275 265 260 260 248 239 235 231 230 228 226 226 224 225 225 231 230 234 232 233 235 235 224 223 236 238 234 233 241 235 251 214 228 241 248 241 270 259 287
301 296 294 294 295 290 280 268 249 250 250 217 225 225 227 226 225 227 216 223 217 220 221 225 228 229 230 233 225 228 231 231 235 236 243 243 242 201 221 215 196 241 267 286 329
303 297 296 297 294 287 268 261 253 244 234 218 217 204 216 220 219 222 220 219 218 219 225 231 231 231 228 231 232 229 236 236 236 235 245 233 234 210 212 192 176 219 269 320 334
311 303 299 296 297 282 248 256 256 249 237 227 209 196 204 196 206 214 218 218 220 216 221 224 225 226 231 234 232 234 233 236 241 241 246 244 221 212 215 208 205 210 298 340 331
318 313 308 298 298 270 251 254 254 249 242 235 216 209 185 190 190 204 208 210 212 212 218 223 227 223 221 225 213 220 236 222 225 226 234 228 220 195 212 232 208 255 330 355 311
327 325 321 313 11 328 293 297 261 247 241 235 227 203 179 183 181 189 195 205 206 209 212 212 216 213 210 215 213 216 218 213 224 230 230 224 222 203 210 226 196 173 339 327 308
331 328 319 237 264 290 293 287 304 249 232 222 221 206 188 179 180 180 190 199 201 201 208 208 209 205 205 216 211 212 222 219 226 221 221 223 196 204 209 202 190 136 314 300 333
347 331 318 256 300 312 297 293 277 265 242 227 218 210 214 183 183 180 184 194 199 200 202 206 205 195 202 210 208 207 205 211 218 223 222 225 178 205 209 212 214 130 281 302 338
359 338 312 283 268 305 328 314 295 279 263 245 238 222 221 198 187 174 184 192 193 196 200 203 201 198 199 201 202 205 207 211 212 220 218 221 180 202 214 226 219 158 241 322 326
354 354 335 315 313 312 319 302 291 285 279 262 253 246 233 220 189 182 177 189 191 196 196 200 201 200 195 200 199 205 210 215 220 218 223 211 218 211 222 223 200 194 159 303 329
6 1 327 312 308 300 305 326 340 306 270 266 256 250 249 233 207 197 181 188 192 197 192 195 196 200 192 196 197 202 206 212 219 221 225 220 211 218 232 220 214 178 181 294 318
347 352 350 4 339 318 318 315 312 323 291 292 282 249 247 244 228 206 187 182 192 197 194 191 194 198 191 194 198 205 202 210 214 218 219 214 206 212 233 207 213 197 171 44 316
Height
5810 5810 5810 5809 5809 5810 5813 5813 5814 5817 5819 5820 5823 5826 5829 5832 5835 5840 5846 5848 5841 5844 5849 5852 5853 5855 5854 5855 5854 5853 5850 5855 5858 5856 5855 5857 5852 5854 5848 5844 5842 5837 5835 5835 5831
5801 5801 5800 5800 5801 5802 5802 5804 5805 5807 5808 5809 5811 5814 5817 5821 5826 5830 5842 5835 5834 5837 5843 5844 5847 5845 5844 5847 5845 5845 5842 5848 5852 5849 5847 5847 5844 5844 5842 5840 5838 5834 5830 5828 5826
5793 5793 5793 5793 5793 5793 5793 5792 5793 5795 5796 5797 5799 5802 5805 5807 5814 5824 5823 5828 5830 5830 5834 5837 5837 5837 5838 5839 5842 5837 5834 5844 5844 5844 5839 5838 5837 5836 5831 5832 5832 5827 5826 5822 5825
5785 5784 5783 5782 5781 5781 5780 5781 5782 5783 5784 5787 5788 5790 5793 5796 5799 5810 5815 5818 5821 5823 5825 5827 5828 5829 5832 5831 5838 5825 5830 5834 5836 5837 5832 5829 5826 5824 5824 5822 5824 5821 5819 5819 5819
5776 5774 5773 5772 5771 5771 5770 5771 5771 5772 5773 5775 5777 5780 5782 5784 5790 5800 5809 5808 5810 5813 5816 5817 5818 5822 5821 5825 5826 5818 5827 5826 5826 5827 5826 5821 5817 5814 5815 5819 5816 5814 5812 5813 5812
5766 5764 5762 5761 5760 5759 5758 5759 5760 5760 5761 5762 5765 5767 5769 5769 5787 5791 5791 5796 5797 5801 5805 5806 5811 5813 5808 5814 5814 5819 5814 5817 5819 5820 5818 5812 5809 5808 5814 5812 5810 5808 5807 5808 5809
5754 5751 5749 5748 5746 5746 5745 5745 5745 5746 5749 5751 5751 5753 5756 5767 5774 5777 5773 5781 5785 5790 5794 5798 5800 5800 5801 5804 5807 5807 5803 5808 5814 5814 5814 5808 5803 5807 5807 5805 5804 5802 5803 5803 5804
5738 5736 5733 5731 5730 5729 5729 5729 5731 5731 5734 5737 5739 5742 5743 5759 5756 5763 5769 5769 5775 5777 5784 5786 5786 5788 5786 5791 5794 5796 5795 5802 5810 5812 5813 5802 5801 5803 5799 5799 5800 5799 5798 5796 5795
5722 5717 5713 5710 5709 5709 5709 5710 5713 5716 5718 5720 5726 5729 5732 5742 5746 5753 5752 5758 5759 5763 5766 5771 5771 5775 5777 5778 5783 5785 5790 5794 5800 5805 5801 5795 5795 5796 5795 5794 5795 5793 5792 5790 5790
5703 5696 5691 5688 5686 5685 5686 5687 5690 5695 5700 5704 5710 5716 5721 5728 5732 5738 5740 5745 5749 5751 5754 5755 5757 5759 5765 5766 5766 5780 5783 5788 5793 5800 5792 5789 5788 5793 5790 5787 5787 5787 5786 5785 5784
5678 5670 5664 5660 5657 5656 5660 5662 5668 5673 5681 5688 5693 5701 5705 5710 5718 5724 5730 5734 5737 5741 5742 5746 5749 5747 5756 5764 5768 5775 5775 5780 5788 5792 5783 5784 5783 5791 5788 5784 5782 5782 5783 5780 5778
5646 5635 5629 5625 5624 5623 5626 5630 5638 5646 5658 5667 5673 5683 5690 5695 5701 5710 5717 5723 5726 5730 5737 5738 5732 5746 5752 5754 5756 5762 5766 5772 5780 5787 5776 5780 5777 5781 5781 5779 5779 5779 5778 5775 5774
5616 5609 5602 5599 5597 5597 5595 5599 5608 5616 5631 5650 5655 5661 5675 5678 5685 5697 5706 5711 5716 5721 5724 5728 5740 5739 5739 5742 5745 5750 5757 5769 5774 5778 5771 5770 5770 5775 5776 5774 5775 5775 5772 5771 5770
5599 5593 5590 5588 5585 5583 5582 5581 5581 5588 5601 5632 5638 5643 5655 5662 5670 5685 5693 5699 5703 5710 5717 5719 5729 5730 5730 5732 5738 5742 5756 5763 5766 5767 5768 5764 5758 5769 5769 5769 5769 5768 5767 5767 5766
5590 5586 5583 5579 5576 5575 5575 5571 5570 5570 5581 5606 5606 5619 5631 5643 5659 5671 5676 5685 5695 5700 5707 5711 5721 5726 5727 5733 5735 5742 5751 5755 5757 5756 5756 5760 5754 5764 5764 5764 5766 5763 5763 5763 5763
5583 5579 5574 5569 5565 5565 5562 5562 5563 5563 5566 5581 5583 5600 5612 5623 5637 5646 5659 5671 5682 5689 5697 5701 5709 5714 5721 5726 5727 5735 5741 5745 5745 5746 5740 5756 5752 5760 5760 5761 5763 5761 5761 5760 5758
5575 5570 5564 5561 5557 5554 5552 5551 5551 5550 5566 5571 5573 5579 5586 5606 5624 5628 5647 5653 5665 5673 5681 5686 5694 5703 5713 5715 5722 5727 5731 5734 5736 5734 5734 5752 5748 5757 5755 5758 5757 5758 5759 5755 5753
5566 5560 5555 5551 5547 5544 5543 5542 5540 5546 5551 5554 5557 5566 5572 5588 5600 5613 5634 5646 5657 5668 5673 5680 5689 5696 5704 5709 5717 5723 5726 5727 5726 5729 5740 5745 5744 5753 5752 5751 5752 5755 5754 5752 5750
5557 5549 5544 5540 5536 5531 5533 5533 5535 5539 5540 5542 5552 5555 5561 5571 5581 5603 5624 5640 5648 5658 5664 5672 5679 5688 5696 5704 5711 5717 5712 5725 5728 5733 5734 5736 5746 5745 5747 5748 5751 5752 5751 5749 5747
5548 5539 5532 5530 5528 5527 5528 5528 5529 5530 5531 5533 5539 5545 5554 5563 5575 5594 5608 5617 5633 5644 5654 5665 5671 5681 5690 5694 5698 5704 5706 5716 5716 5720 5724 5735 5739 5742 5744 5745 5747 5749 5748 5745 5745
5541 5533 5528 5527 5527 5526 5525 5525 5523 5523 5525 5527 5529 5540 5547 5555 5567 5579 5590 5604 5616 5627 5637 5650 5660 5673 5679 5683 5691 5694 5693 5705 5712 5716 5723 5731 5737 5739 5739 5743 5745 5745 5745 5744 5743
5536 5531 5527 5527 5527 5524 5524 5522 5520 5518 5520 5523 5529 5536 5541 5547 5556 5566 5576 5587 5599 5612 5624 5637 5648 5661 5673 5675 5683 5687 5696 5704 5707 5714 5721 5727 5733 5733 5736 5739 5741 5741 5742 5742 5739
5533 5528 5526 5526 5527 5524 5521 5520 5520 5519 5519 5522 5523 5531 5534 5539 5546 5555 5563 5575 5587 5601 5613 5623 5636 5650 5658 5665 5672 5683 5690 5695 5703 5709 5714 5721 5729 5730 5733 5735 5738 5737 5740 5739 5735
5534 5529 5526 5525 5524 5521 5521 5519 5518 5519 5518 5517 5520 5522 5525 5530 5536 5548 5558 5569 5577 5587 5601 5614 5627 5641 5651 5664 5676 5678 5683 5689 5697 5702 5713 5717 5724 5726 5730 5733 5736 5735 5738 5736 5734
5535 5529 5525 5524 5523 5522 5520 5518 5516 5516 5515 5514 5517 5517 5519 5523 5531 5540 5548 5562 5572 5579 5592 5610 5625 5637 5651 5659 5667 5675 5682 5688 5691 5701 5704 5717 5720 5723 5727 5732 5732 5733 5734 5735 5733
5535 5530 5526 5522 5520 5518 5517 5516 5514 5513 5511 5510 5513 5514 5517 5521 5525 5530 5541 5555 5565 5576 5588 5604 5616 5627 5641 5651 5659 5665 5674 5681 5689 5696 5702 5709 5714 5720 5724 5727 5729 5730 5733 5734 5733
5536 5531 5526 5522 5517 5515 5514 5514 5513 5511 5509 5508 5509 5510 5513 5515 5520 5526 5536 5551 5563 5573 5584 5596 5608 5619 5636 5646 5653 5652 5662 5673 5685 5692 5699 5703 5712 5716 5718 5723 5726 5729 5731 5731 5732